Date String (YYYY-MM-DD hh:mm:ss) UTC,Instrument flags,Ambient pressure (hPa),Sample flow (lpm),Bypass flow (lpm),Sample temperature (°C),Ambient temperature (°C),ASC tube jacket temperature (°C),LED temperature (°C),Box temperature (°C),Sample RH (%),Span deviation,Mass concentration (μg/m³),Mass concentration (μg/m³),Mass concentration (μg/m³)
DateTimeUTC,F1_M11,P_M11,Q1_M11,Q2_M11,T1_M11,T2_M11,T3_M11,T4_M11,T5_M11,U1_M11,ZSPAN_M11,X0_M11,X2_M11,X1_M11
2022-04-11 17:00:00,,0815.3,4.99,0.00,23.3,22.6,00.0,32.1,25.2,09.1,0000.0,0024.37,0005.55,0003.32
2022-04-11 17:01:00,,0815.2,5.02,0.00,23.4,22.6,00.0,32.1,25.2,09.2,0000.0,0024.39,0005.53,0003.33
2022-04-11 17:02:00,,0815.2,4.99,0.00,23.4,22.6,00.0,32.1,25.2,09.2,0000.0,0024.43,0005.54,0003.33
2022-04-11 17:03:00,,0815.3,4.99,0.00,23.4,22.7,00.0,32.2,25.2,09.0,0000.0,0024.27,0005.51,0003.33
2022-04-11 17:04:00,,0815.5,4.99,0.00,23.4,22.7,00.0,32.2,25.3,09.1,0000.0,0024.39,0005.45,0003.33
2022-04-11 17:05:00,,0815.3,5.00,0.00,23.4,22.7,00.0,32.2,25.3,09.2,0000.0,0024.57,0005.48,0003.33
2022-04-11 17:06:00,,0815.2,5.01,0.00,23.5,22.7,00.0,32.2,25.3,09.2,0000.0,0024.41,0005.57,0003.33
2022-04-11 17:07:00,,0815.2,5.01,0.00,23.5,22.8,00.0,32.2,25.3,09.4,0000.0,0022.24,0005.57,0003.33
2022-04-11 17:08:00,,0815.3,5.00,0.00,23.5,22.8,00.0,32.3,25.4,09.3,0000.0,0021.75,0005.59,0003.33
2022-04-11 17:09:00,,0815.4,4.99,0.00,23.5,22.8,00.0,32.3,25.4,09.0,0000.0,0021.81,0005.52,0003.33
2022-04-11 17:10:00,,0815.2,5.01,0.00,23.5,22.8,00.0,32.3,25.4,08.9,0000.0,0020.80,0005.57,0003.33
2022-04-11 17:11:00,,0815.1,5.00,0.00,23.5,22.7,00.0,32.3,25.4,08.9,0000.0,0020.60,0005.65,0003.34
2022-04-11 17:12:00,,0815.0,5.00,0.00,23.5,22.7,00.0,32.3,25.4,09.1,0000.0,0020.45,0005.69,0003.34
2022-04-11 17:13:00,,0814.9,5.00,0.00,23.5,22.7,00.0,32.3,25.4,09.0,0000.0,0020.75,0005.74,0003.33
2022-04-11 17:14:00,,0814.9,5.01,0.00,23.5,22.7,00.0,32.4,25.3,08.8,0000.0,0020.37,0005.71,0003.34
2022-04-11 17:15:00,,0815.0,4.99,0.00,23.5,22.7,00.0,32.4,25.3,08.8,0000.0,0019.82,0005.72,0003.34
2022-04-11 17:16:00,,0814.9,5.00,0.00,23.5,22.7,00.0,32.4,25.3,08.8,0000.0,0019.61,0005.73,0003.36
2022-04-11 17:17:00,,0814.9,5.00,0.00,23.5,22.7,00.0,32.4,25.3,08.8,0000.0,0019.40,0005.72,0003.37
2022-04-11 17:18:00,,0814.9,5.02,0.00,23.5,22.7,00.0,32.4,25.4,08.6,0000.0,0019.29,0005.70,0003.37
2022-04-11 17:19:00,,0814.9,5.00,0.00,23.5,22.7,00.0,32.4,25.4,08.7,0000.0,0019.46,0005.73,0003.38
2022-04-11 17:20:00,,0814.9,5.00,0.00,23.6,22.8,00.0,32.4,25.4,08.8,0000.0,0020.28,0005.74,0003.39
2022-04-11 17:21:00,,0814.9,5.02,0.00,23.6,22.8,00.0,32.4,25.4,08.7,0000.0,0020.04,0005.70,0003.38
2022-04-11 17:22:00,,0814.9,4.99,0.00,23.6,22.8,00.0,32.4,25.4,08.8,0000.0,0019.21,0005.75,0003.39
2022-04-11 17:23:00,,0814.8,5.00,0.00,23.6,22.8,00.0,32.4,25.4,08.6,0000.0,0019.78,0005.77,0003.40
2022-04-11 17:24:00,,0814.9,4.99,0.00,23.6,22.8,00.0,32.4,25.4,08.5,0000.0,0022.36,0005.77,0003.41
2022-04-11 17:25:00,,0814.8,5.00,0.00,23.6,22.8,00.0,32.4,25.4,08.7,0000.0,0023.54,0005.82,0003.43
2022-04-11 17:26:00,,0814.8,5.02,0.00,23.6,22.8,00.0,32.4,25.5,08.7,0000.0,0023.99,0005.91,0003.44
2022-04-11 17:27:00,,0814.8,5.00,0.00,23.6,22.9,00.0,32.5,25.5,08.7,0000.0,0023.44,0005.94,0003.44
2022-04-11 17:28:00,,0814.7,4.99,0.00,23.6,22.9,00.0,32.5,25.5,08.9,0000.0,0022.57,0005.90,0003.44
2022-04-11 17:29:00,,0814.7,4.99,0.00,23.7,22.9,00.0,32.5,25.5,09.0,0000.0,0022.66,0005.88,0003.45
2022-04-11 17:30:00,,0814.6,5.01,0.00,23.6,22.9,00.0,32.5,25.5,08.6,0000.0,0023.28,0005.89,0003.45
2022-04-11 17:31:00,,0814.6,5.00,0.00,23.7,22.9,00.0,32.5,25.5,08.7,0000.0,0023.21,0005.95,0003.46
2022-04-11 17:32:00,,0815.0,4.99,0.00,23.7,22.9,00.0,32.5,25.5,08.8,0000.0,0024.05,0006.00,0003.47
2022-04-11 17:33:00,,0814.8,5.01,0.00,23.7,22.9,00.0,32.5,25.5,08.9,0000.0,0023.90,0005.95,0003.47
2022-04-11 17:34:00,,0815.0,5.01,0.00,23.6,22.8,00.0,32.5,25.5,08.7,0000.0,0023.51,0006.02,0003.47
2022-04-11 17:35:00,,0815.0,4.99,0.00,23.6,22.8,00.0,32.5,25.5,09.2,0000.0,0021.08,0006.02,0003.47
2022-04-11 17:36:00,,0815.0,4.99,0.00,23.7,22.8,00.0,32.5,25.5,09.2,0000.0,0019.90,0006.06,0003.46
2022-04-11 17:37:00,,0815.0,5.01,0.00,23.7,22.9,00.0,32.5,25.5,09.4,0000.0,0019.58,0006.07,0003.46
2022-04-11 17:38:00,,0815.0,5.00,0.00,23.7,22.9,00.0,32.6,25.5,09.6,0000.0,0019.21,0006.11,0003.48
2022-04-11 17:39:00,,0815.0,4.99,0.00,23.7,22.9,00.0,32.6,25.5,09.6,0000.0,0019.20,0006.11,0003.49
2022-04-11 17:40:00,,0815.0,5.02,0.00,23.7,22.9,00.0,32.6,25.5,09.1,0000.0,0020.12,0006.17,0003.49
2022-04-11 17:41:00,,0814.9,5.00,0.00,23.7,22.9,00.0,32.6,25.5,09.1,0000.0,0019.37,0006.14,0003.50
2022-04-11 17:42:00,,0815.1,4.99,0.00,23.7,23.0,00.0,32.6,25.5,09.1,0000.0,0018.84,0006.14,0003.51
2022-04-11 17:43:00,,0814.9,5.00,0.00,23.7,23.0,00.0,32.6,25.5,08.8,0000.0,0017.54,0006.12,0003.51
2022-04-11 17:44:00,,0814.7,5.01,0.00,23.8,23.0,00.0,32.6,25.6,08.8,0000.0,0016.93,0006.12,0003.51
2022-04-11 17:45:00,,0814.5,5.00,0.00,23.8,23.1,00.0,32.6,25.6,09.0,0000.0,0017.43,0006.03,0003.52
2022-04-11 17:46:00,,0814.9,5.00,0.00,23.8,23.1,00.0,32.6,25.6,09.6,0000.0,0017.52,0006.00,0003.52
2022-04-11 17:47:00,,0814.4,4.99,0.00,23.8,23.1,00.0,32.6,25.7,09.3,0000.0,0017.34,0005.99,0003.52
2022-04-11 17:48:00,,0814.4,5.00,0.00,23.9,23.2,00.0,32.6,25.7,09.0,0000.0,0017.27,0005.91,0003.52
2022-04-11 17:49:00,,0814.4,4.99,0.00,23.9,23.2,00.0,32.7,25.7,09.0,0000.0,0016.94,0005.81,0003.51
2022-04-11 17:50:00,,0814.4,5.00,0.00,23.9,23.2,00.0,32.7,25.8,09.2,0000.0,0017.86,0005.85,0003.51
2022-04-11 17:51:00,,0814.4,5.02,0.00,23.9,23.2,00.0,32.7,25.8,09.3,0000.0,0017.49,0005.81,0003.51
2022-04-11 17:52:00,,0814.3,4.99,0.00,24.0,23.2,00.0,32.7,25.9,09.2,0000.0,0017.19,0005.78,0003.51
2022-04-11 17:53:00,,0814.3,5.00,0.00,24.0,23.2,00.0,32.8,25.9,09.5,0000.0,0016.84,0005.73,0003.51
2022-04-11 17:54:00,,0814.3,5.00,0.00,24.0,23.3,00.0,32.8,25.9,09.6,0000.0,0016.96,0005.73,0003.50
2022-04-11 17:55:00,,0814.3,5.01,0.00,24.0,23.3,00.0,32.8,25.9,09.0,0000.0,0016.84,0005.73,0003.50
2022-04-11 17:56:00,,0814.1,5.00,0.00,24.0,23.3,00.0,32.8,25.9,09.0,0000.0,0016.02,0005.86,0003.51
2022-04-11 17:57:00,,0814.2,5.00,0.00,24.0,23.3,00.0,32.8,25.9,09.3,0000.0,0015.84,0005.89,0003.54
2022-04-11 17:58:00,,0814.3,4.99,0.00,24.0,23.3,00.0,32.8,25.9,09.1,0000.0,0015.58,0005.85,0003.55
2022-04-11 17:59:00,,0814.1,5.00,0.00,24.1,23.4,00.0,32.8,26.0,09.1,0000.0,0015.67,0005.91,0003.57
